Location: Le Domaine
(47.0333°N, 76.5361°W)
Time: 18:50:42
(UTC-04:00)

N. Korean satellite - Visible Passes

Search period start: 17 October 2019 00:00
Search period end: 27 October 2019 00:00
Orbit: 455 x 508 km, 97.2° (Epoch: 16 October)

Date Brightness Start Highest point End Pass type
(mag) Time Alt. Az. Time Alt. Az. Time Alt. Az.
17 Oct 7.8 06:47:51 10° NNE 06:51:19 47° E 06:54:49 10° S visible
17 Oct 9.7 19:00:21 10° SW 19:02:58 20° W 19:05:36 10° NW visible
18 Oct 9.3 06:22:57 10° NE 06:25:56 24° E 06:28:55 10° SSE visible
19 Oct 10.2 05:58:44 10° ENE 06:00:26 13° E 06:02:09 10° ESE visible
20 Oct 10.2 19:18:58 10° WSW 19:20:35 13° W 19:22:14 10° WNW visible
21 Oct 8.3 06:40:05 10° NNE 06:43:30 38° E 06:46:56 10° SSE visible
21 Oct 9.2 18:52:13 10° SSW 18:55:05 25° W 18:58:00 10° NW visible
22 Oct 9.6 06:15:19 10° NE 06:18:04 20° E 06:20:51 10° SE visible
23 Oct 10.5 05:51:40 10° ENE 05:52:33 11° E 05:53:24 10° ESE visible
24 Oct 7.2 06:57:24 10° NNE 07:01:01 64° E 07:04:40 10° S visible
24 Oct 10.0 19:10:29 10° SW 19:12:39 16° W 19:14:52 10° NW visible
25 Oct 8.8 06:32:20 10° NNE 06:35:39 31° E 06:38:58 10° SSE visible
25 Oct 8.8 18:44:05 10° SSW 18:47:10 30° W 18:50:18 10° NNW visible
26 Oct 9.9 06:07:42 10° NE 06:10:10 17° E 06:12:38 10° SE visible
